[[{"header":{"parameterUnit":"m.s-1","parameterCategory":1,"la1":30.2992,"la2":30.254,"lo1":-89.0895,"lo2":-89.0443,"dy":0.0025,"dx":0.0025,"nx":19,"ny":19,"refTime":"2026-04-26T21:00:00:Z","depth":0,"parameterNumber":2,"parameterNumberName":"U-component_of_WINDS"},"data":[0,0,0,-0.2458,-0.2457,-0.2421,-0.2421,-0.2384,-0.2384,0,0,0,0,0,0,0,0,0,0,0,-0.2472,-0.2472,-0.2458,-0.2457,-0.2421,-0.2421,-0.2384,-0.2384,0,0,0,0,0,0,0,0,0,0,0,-0.2472,-0.2472,-0.2472,-0.2457,-0.2422,-0.2421,-0.2384,-0.2408,0,0,0,0,0,0,0,0,0,0,-0.2441,-0.2459,-0.2472,-0.2472,-0.2457,-0.2422,-0.2421,-0.2409,-0.2407,-0.2403,0,-0.2401,0,-0.2392,-0.2382,-0.2381,0,0,0,-0.2454,-0.2461,-0.2447,-0.2472,-0.2456,-0.2422,-0.2437,-0.2408,-0.2405,-0.24,-0.24,-0.2398,-0.2391,-0.2381,-0.2381,-0.237,-0.2371,0,0,-0.2456,-0.2468,-0.2449,-0.2446,-0.2451,-0.2438,-0.2436,-0.2406,-0.2407,-0.24,-0.2397,-0.239,-0.2381,-0.2381,-0.237,-0.237,0,0,0,-0.2464,-0.247,-0.2457,-0.2448,-0.2441,-0.2437,-0.2434,-0.2408,-0.2403,-0.2397,-0.239,-0.2381,-0.2381,-0.237,-0.237,-0.2387,0,0,0,-0.2465,-0.2474,-0.2458,-0.2465,-0.2441,-0.2424,-0.2438,-0.2405,-0.2401,-0.239,-0.2381,-0.238,-0.237,-0.237,-0.2386,-0.2392,0,0,0,-0.2473,-0.2475,-0.2471,-0.2466,-0.2451,-0.2424,-0.2417,-0.2404,-0.2397,-0.2381,-0.238,-0.237,-0.237,-0.2385,-0.2391,-0.2394,0,0,0,-0.2486,-0.2486,-0.2472,-0.2469,-0.2451,-0.2434,-0.2417,-0.2403,-0.2392,-0.2381,-0.237,-0.237,-0.2385,-0.2391,-0.2393,-0.2399,-0.2402,0,0,-0.2492,-0.2487,-0.2484,-0.2471,-0.2459,-0.2438,-0.2429,-0.2407,-0.2395,-0.238,-0.2379,-0.2386,-0.2391,-0.2394,-0.2414,-0.2416,0,0,0,-0.2491,-0.2489,-0.2483,-0.2473,-0.2456,-0.2442,-0.242,-0.2413,-0.2399,-0.2389,-0.2387,-0.239,-0.2391,-0.2393,-0.2395,-0.2395,-0.2372,-0.2372,-0.2372,-0.2517,-0.2501,-0.2496,-0.2477,-0.2467,-0.2445,-0.2436,-0.2422,-0.2408,-0.2408,-0.2404,-0.2418,-0.242,-0.2422,-0.2423,-0.2405,-0.2405,-0.2405,-0.2405,-0.2526,-0.2521,-0.2504,-0.2494,-0.2478,-0.2469,-0.2448,-0.2439,-0.2429,-0.2419,-0.242,-0.2411,-0.2425,-0.2425,-0.2406,-0.2406,-0.2406,-0.2405,-0.2405,-0.2542,-0.2537,-0.2527,-0.2511,-0.2501,-0.2482,-0.2473,-0.2459,-0.2445,-0.2445,-0.2439,-0.2439,-0.2438,-0.2443,-0.2443,-0.2443,-0.2443,-0.2443,-0.2443,-0.2562,-0.2551,-0.2545,-0.2528,-0.252,-0.2508,-0.2487,-0.2479,-0.2467,-0.2457,-0.2457,-0.2445,-0.2429,-0.2426,-0.2444,-0.2444,-0.2444,-0.2444,-0.2444,-0.2578,-0.2572,-0.2563,-0.2555,-0.2535,-0.2527,-0.2509,-0.2494,-0.2486,-0.2482,-0.247,-0.2461,-0.2454,-0.2452,-0.245,-0.2473,-0.2473,-0.2473,-0.2473,-0.2592,-0.2587,-0.2575,-0.2564,-0.2551,-0.2535,-0.2527,-0.2511,-0.2494,-0.2488,-0.2483,-0.2478,-0.2477,-0.2471,-0.2468,-0.2466,-0.2492,-0.2492,-0.2492,-0.2601,-0.2594,-0.259,-0.2573,-0.2556,-0.2543,-0.2536,-0.2524,-0.2504,-0.2493,-0.2483,-0.2483,-0.2475,-0.2473,-0.2462,-0.2458,-0.2453,0,0]},{"header":{"parameterUnit":"m.s-1","parameterCategory":1,"la1":30.2992,"la2":30.254,"lo1":-89.0895,"lo2":-89.0443,"dy":0.0025,"dx":0.0025,"nx":19,"ny":19,"refTime":"2026-04-26T21:00:00:Z","depth":0,"parameterNumber":3,"parameterNumberName":"V-component_of_WINDS"},"data":[0,0,0,3.9378,3.938,3.9462,3.9462,3.9576,3.9577,0,0,0,0,0,0,0,0,0,0,0,3.9362,3.9363,3.9377,3.938,3.9462,3.9462,3.9576,3.9577,0,0,0,0,0,0,0,0,0,0,0,3.9361,3.9362,3.9364,3.938,3.9461,3.9462,3.9575,3.951,0,0,0,0,0,0,0,0,0,0,3.9428,3.9422,3.9362,3.9364,3.9381,3.9461,3.9462,3.9506,3.9514,3.9544,0,3.9575,0,3.9578,3.9585,3.9586,0,0,0,3.9373,3.9416,3.9431,3.9364,3.9382,3.9461,3.9423,3.951,3.9519,3.9554,3.9576,3.958,3.958,3.9586,3.9587,3.9789,3.979,0,0,3.9368,3.938,3.9425,3.9437,3.9428,3.942,3.9425,3.9515,3.954,3.9577,3.9583,3.9582,3.9587,3.9588,3.9788,3.979,0,0,0,3.936,3.9377,3.939,3.9433,3.9447,3.9423,3.9429,3.9535,3.9539,3.9584,3.9583,3.9588,3.9589,3.9787,3.9789,3.9864,0,0,0,3.9357,3.9372,3.9388,3.9396,3.9446,3.9493,3.9447,3.9533,3.9542,3.9583,3.9588,3.9591,3.9785,3.9788,3.9859,3.9898,0,0,0,3.9353,3.9372,3.9387,3.9396,3.9432,3.9491,3.9499,3.9534,3.9543,3.9586,3.9591,3.9784,3.9787,3.9855,3.9891,3.9956,0,0,0,3.9352,3.9451,3.9388,3.9498,3.9432,3.9538,3.9498,3.9576,3.9623,3.9589,3.9785,3.9788,3.9853,3.9886,3.9951,4.0014,4.0041,0,0,3.9483,3.9467,3.9531,3.9477,3.9598,3.9525,3.9655,3.9685,3.9677,3.9752,3.9756,3.9861,3.989,3.9955,4.0188,4.0209,0,0,0,3.9576,3.9622,3.9652,3.9698,3.9725,3.9751,3.9761,3.9772,3.9835,3.9719,3.9901,3.9918,3.9956,3.9985,4.0004,4.0035,3.9802,3.9802,3.9802,3.9778,3.9765,3.987,3.9867,3.9912,3.9922,3.9956,3.9973,3.9943,3.9987,4.0009,4.0153,4.0187,4.0201,4.0235,4.0041,4.0041,4.0041,4.0041,3.9969,4.0033,3.9995,4.0083,4.0068,4.0141,4.0154,4.0131,4.0196,4.0134,4.0166,4.0101,4.0226,4.0254,4.0047,4.0046,4.0045,4.0045,4.0044,4.01,4.0129,4.0143,4.0209,4.0262,4.0254,4.0319,4.0302,4.0286,4.0318,4.034,4.0339,4.0336,4.0329,4.033,4.033,4.0331,4.0331,4.0332,4.0231,4.0245,4.0303,4.0342,4.037,4.0405,4.0416,4.0442,4.0467,4.0449,4.0449,4.0416,4.024,4.0197,4.0339,4.0338,4.0337,4.0336,4.0336,4.0431,4.0384,4.0474,4.0503,4.0547,4.0601,4.0579,4.0634,4.0653,4.0686,4.0647,4.0519,4.0501,4.0486,4.045,4.0649,4.0649,4.0649,4.0649,4.0543,4.0533,4.0622,4.0669,4.0713,4.0703,4.0804,4.0814,4.0815,4.0826,4.0794,4.0745,4.0731,4.072,4.0701,4.0667,4.0917,4.0917,4.0917,4.0666,4.0659,4.075,4.0754,4.0787,4.0816,4.0911,4.0965,4.0956,4.0928,4.0834,4.0823,4.0743,4.0718,4.0687,4.0657,4.0594,0,0]}]]